Terminal Aerodrome Forecast
Issued by NWS

Home | Current Version | Previous Version | Text Only | Print | Product List | Glossary On
Versions: 1 2 3 4 5 6 7 8 9 10 11 12 13 14 15 16 17 18
000
FTUS43 KGLD 042003 AAC
TAFMCK
TAF AMD
KMCK 042003Z 0420/0518 29012G15KT P6SM SKC
     FM042200 24008KT P6SM SKC
     FM050000 20006KT P6SM FEW250
     FM050500 21009KT P6SM FEW200 WS005/22040KT
     FM050800 23006KT P6SM SCT200
     FM051700 08004KT P6SM SCT150=

USA.gov is the U.S. government's official web portal to all federal, state and local government web resources and services.